BOX742 OOMS-VHHH

Flight info

Callsign BOX742
Flight time N/A
Altitude 39000
Route SODEB DCT VAXIM L301 RASKI L639 BPL A791 SEBMA/N0479F410 A791 CEA B465 CTG A599 LINSO/K0885S1250 A599 GULOT W146 XSJ W148 LXI A599 POU R473 VIBOS DCT SIERA
Aircraft B77L/H-SDE1E2E3FGHIJ2J3J4J5M1RWXYZ/LB1D1

Departure

Time 2026-05-04 20:40
Airport Muscat International Airport (OOMS)

Arrival

Time N/A
Airport Hong Kong International Airport (VHHH)
Time Latitude Longitude Altitude Speed Heading
2026-05-04 17:10 23.59865 58.30048 62 ft 0 kts 355°
2026-05-04 20:33 23.59862 58.30048 62 ft 2 kts 355°
2026-05-04 20:33 23.59846 58.30049 62 ft 3 kts 355°
2026-05-04 20:33 23.59827 58.30051 62 ft 3 kts 355°
2026-05-04 20:33 23.59819 58.30052 62 ft 1 kts 355°
2026-05-04 20:34 23.59814 58.30052 62 ft 2 kts 355°
2026-05-04 20:34 23.59809 58.30053 62 ft 2 kts 355°
2026-05-04 20:34 23.59792 58.30053 62 ft 3 kts 14°
2026-05-04 20:34 23.59775 58.30043 62 ft 3 kts 43°
2026-05-04 20:35 23.59764 58.30024 62 ft 3 kts 71°
2026-05-04 20:35 23.59762 58.30027 62 ft 3 kts 86°
2026-05-04 20:35 23.59762 58.30046 62 ft 2 kts 93°
2026-05-04 20:35 23.59761 58.30066 62 ft 6 kts 92°
2026-05-04 20:36 23.59756 58.30175 62 ft 18 kts 92°
2026-05-04 20:36 23.59750 58.30307 62 ft 17 kts 122°
2026-05-04 20:36 23.59644 58.30325 62 ft 17 kts 213°
2026-05-04 20:36 23.59547 58.30253 62 ft 16 kts 214°
2026-05-04 20:37 23.59461 58.30179 62 ft 16 kts 242°
2026-05-04 20:37 23.59456 58.30156 62 ft 0 kts 266°
2026-05-04 20:39 23.59455 58.30154 62 ft 4 kts 266°
2026-05-04 20:40 23.59442 58.29950 62 ft 62 kts 263°
2026-05-04 20:40 23.59377 58.29182 62 ft 139 kts 264°
2026-05-04 20:40 23.59278 58.27904 191 ft 190 kts 265°
2026-05-04 20:40 23.59195 58.26453 1124 ft 189 kts 266°
2026-05-04 20:41 23.59130 58.25003 2068 ft 194 kts 266°
2026-05-04 20:41 23.59054 58.23476 2598 ft 213 kts 266°
2026-05-04 20:41 23.59042 58.21755 2971 ft 242 kts 277°
2026-05-04 20:41 23.59721 58.20000 3494 ft 264 kts 306°
2026-05-04 20:42 23.61170 58.18748 4430 ft 271 kts 333°
2026-05-04 20:42 23.63009 58.18342 5499 ft 274 kts 359°
2026-05-04 20:42 23.64860 58.18873 6502 ft 282 kts 25°
2026-05-04 20:42 23.66381 58.20265 7364 ft 293 kts 50°
2026-05-04 20:43 23.67273 58.22279 8246 ft 300 kts 72°
2026-05-04 20:43 23.67574 58.24539 9141 ft 303 kts 84°
2026-05-04 20:43 23.67792 58.26849 9984 ft 310 kts 83°
2026-05-04 20:43 23.68038 58.29245 10586 ft 326 kts 83°
2026-05-04 20:44 23.68295 58.31768 11160 ft 345 kts 84°
2026-05-04 20:45 23.69647 58.45375 15171 ft 396 kts 83°
2026-05-04 20:45 23.69945 58.48412 16134 ft 401 kts 82°
2026-05-04 20:45 23.70243 58.51455 17050 ft 405 kts 82°
2026-05-04 20:46 23.70542 58.54526 17950 ft 410 kts 81°
2026-05-04 20:46 23.70846 58.57640 18764 ft 416 kts 81°
2026-05-04 20:46 23.71155 58.60814 19527 ft 423 kts 81°
2026-05-04 20:46 23.71467 58.64029 20277 ft 430 kts 81°
2026-05-04 20:47 23.71782 58.67292 21006 ft 436 kts 81°
2026-05-04 20:47 23.72102 58.70603 21732 ft 442 kts 81°
2026-05-04 20:47 23.72424 58.73949 22450 ft 447 kts 82°
2026-05-04 20:47 23.72746 58.77300 23114 ft 453 kts 82°
2026-05-04 20:48 23.73085 58.80841 23794 ft 459 kts 82°
2026-05-04 20:48 23.73414 58.84277 24434 ft 464 kts 82°
2026-05-04 20:48 23.73755 58.87851 25027 ft 470 kts 82°
2026-05-04 20:48 23.74092 58.91398 25591 ft 476 kts 82°
2026-05-04 20:49 23.74434 58.95007 26182 ft 482 kts 82°
2026-05-04 20:49 23.74781 58.98670 26728 ft 488 kts 82°
2026-05-04 20:49 23.75130 59.02371 27279 ft 493 kts 82°
2026-05-04 20:49 23.75483 59.06119 27795 ft 500 kts 82°
2026-05-04 20:50 23.75834 59.09855 28333 ft 505 kts 82°
2026-05-04 20:50 23.76198 59.13744 28853 ft 510 kts 82°
2026-05-04 20:50 23.76567 59.17614 29353 ft 516 kts 82°
2026-05-04 20:50 23.76938 59.21469 29838 ft 521 kts 82°
2026-05-04 20:51 23.77308 59.25436 30359 ft 526 kts 82°
2026-05-04 20:51 23.77674 59.29423 30896 ft 529 kts 82°
2026-05-04 20:51 23.78039 59.33423 31537 ft 529 kts 82°
2026-05-04 20:51 23.78402 59.37406 32314 ft 525 kts 83°
2026-05-04 20:52 23.78761 59.41363 33071 ft 523 kts 83°
2026-05-04 20:52 23.79116 59.45312 33726 ft 522 kts 84°
2026-05-04 20:52 23.79241 59.49265 34309 ft 522 kts 90°
2026-05-04 20:52 23.78930 59.53184 34958 ft 521 kts 99°
2026-05-04 20:53 23.78126 59.57057 35636 ft 518 kts 105°
2026-05-04 20:53 23.77061 59.60802 36211 ft 516 kts 108°
2026-05-04 20:53 23.75906 59.64508 36627 ft 517 kts 109°
2026-05-04 20:53 23.74757 59.68230 36742 ft 517 kts 109°
2026-05-04 20:54 23.72563 59.75687 36715 ft 515 kts 108°
2026-05-04 20:54 23.70432 59.83153 36716 ft 515 kts 108°
2026-05-04 20:55 23.68328 59.90633 36718 ft 516 kts 107°
2026-05-04 20:55 23.66233 59.98113 36719 ft 516 kts 108°
2026-05-04 20:56 23.64123 60.05585 36720 ft 516 kts 108°
2026-05-04 20:56 23.62004 60.13058 36721 ft 516 kts 108°
2026-05-04 20:57 23.59881 60.20530 36722 ft 516 kts 108°
2026-05-04 20:57 23.57755 60.27994 36724 ft 516 kts 108°
2026-05-04 20:58 23.55626 60.35451 36730 ft 516 kts 108°
2026-05-04 20:58 23.53490 60.42922 36732 ft 516 kts 108°
2026-05-04 20:59 23.51355 60.50372 36733 ft 515 kts 108°
2026-05-04 20:59 23.49218 60.57816 36735 ft 515 kts 108°
2026-05-04 21:00 23.47078 60.65257 36736 ft 515 kts 108°
2026-05-04 21:00 23.44934 60.72694 36741 ft 515 kts 108°
2026-05-04 21:01 23.42787 60.80130 36745 ft 515 kts 108°
2026-05-04 21:01 23.40647 60.87563 36745 ft 515 kts 108°
2026-05-04 21:02 23.38487 60.95045 36712 ft 515 kts 108°
2026-05-04 21:02 23.36337 61.02422 36711 ft 515 kts 108°
2026-05-04 21:03 23.34165 61.09860 36711 ft 515 kts 108°
2026-05-04 21:03 23.32037 61.17355 36712 ft 515 kts 104°
2026-05-04 21:04 23.30834 61.25021 36713 ft 515 kts 96°
2026-05-04 21:04 23.30217 61.32788 36713 ft 515 kts 94°
2026-05-04 21:05 23.29645 61.40547 36713 ft 515 kts 94°
2026-05-04 21:05 23.28980 61.48299 36714 ft 515 kts 95°
2026-05-04 21:06 23.28284 61.56048 36715 ft 515 kts 95°
2026-05-04 21:06 23.27613 61.63801 36715 ft 515 kts 95°
2026-05-04 21:07 23.26920 61.71552 36715 ft 515 kts 95°
2026-05-04 21:07 23.26216 61.79291 36716 ft 515 kts 95°
2026-05-04 21:08 23.25505 61.87036 36716 ft 515 kts 95°
2026-05-04 21:08 23.24789 61.94783 36717 ft 515 kts 95°
2026-05-04 21:09 23.24069 62.02519 36717 ft 515 kts 95°
2026-05-04 21:09 23.23344 62.10278 36717 ft 516 kts 95°
2026-05-04 21:10 23.22617 62.18005 36718 ft 515 kts 95°
2026-05-04 21:10 23.21883 62.25777 36719 ft 515 kts 95°
2026-05-04 21:11 23.21142 62.33578 36719 ft 515 kts 95°
2026-05-04 21:11 23.20402 62.41323 36720 ft 515 kts 95°
2026-05-04 21:12 23.19657 62.49078 36720 ft 515 kts 95°
2026-05-04 21:12 23.18910 62.56820 36721 ft 515 kts 95°
2026-05-04 21:13 23.18159 62.64558 36721 ft 515 kts 95°
2026-05-04 21:13 23.17403 62.72308 36704 ft 515 kts 95°
2026-05-04 21:14 23.16644 62.80054 36727 ft 515 kts 95°
2026-05-04 21:14 23.15881 62.87801 36759 ft 516 kts 95°
2026-05-04 21:15 23.15113 62.95550 36759 ft 516 kts 95°
2026-05-04 21:15 23.14340 63.03315 36759 ft 516 kts 95°
2026-05-04 21:16 23.13570 63.11015 36757 ft 516 kts 95°
2026-05-04 21:16 23.12788 63.18803 36756 ft 515 kts 95°
2026-05-04 21:17 23.12133 63.25288 36755 ft 515 kts 95°
2026-05-04 21:17 23.11348 63.33026 36754 ft 515 kts 95°
2026-05-04 21:18 23.10558 63.40774 36753 ft 516 kts 95°
2026-05-04 21:18 23.09771 63.48464 36752 ft 516 kts 95°
2026-05-04 21:19 23.08984 63.56270 36751 ft 516 kts 95°
2026-05-04 21:19 23.08186 63.64015 36750 ft 516 kts 95°
2026-05-04 21:20 23.07373 63.71764 36749 ft 516 kts 95°
2026-05-04 21:20 23.06558 63.79498 36748 ft 516 kts 95°
2026-05-04 21:21 23.05742 63.87246 36747 ft 516 kts 95°
2026-05-04 21:21 23.04956 63.94989 36746 ft 516 kts 95°
2026-05-04 21:22 23.04166 64.02734 36745 ft 516 kts 95°
2026-05-04 21:22 23.03370 64.10476 36743 ft 516 kts 95°
2026-05-04 21:23 23.02564 64.18278 36742 ft 516 kts 95°
2026-05-04 21:23 23.01771 64.26023 36742 ft 516 kts 95°
2026-05-04 21:24 23.00993 64.33772 36741 ft 516 kts 95°
2026-05-04 21:24 23.00197 64.41500 36739 ft 516 kts 95°
2026-05-04 21:25 22.99392 64.49262 36738 ft 516 kts 95°
2026-05-04 21:25 22.98599 64.57010 36737 ft 516 kts 95°
2026-05-04 21:26 22.97775 64.64795 36737 ft 516 kts 95°
2026-05-04 21:26 22.96949 64.72535 36736 ft 516 kts 95°
2026-05-04 21:27 22.96121 64.80287 36734 ft 517 kts 95°
2026-05-04 21:27 22.95605 64.88060 36734 ft 516 kts 89°
2026-05-04 21:28 22.95690 64.95837 36733 ft 515 kts 86°
2026-05-04 21:28 22.95847 65.03606 36733 ft 515 kts 87°
2026-05-04 21:29 22.95914 65.11350 36732 ft 515 kts 88°
2026-05-04 21:29 22.95949 65.19139 36731 ft 515 kts 88°
2026-05-04 21:30 22.96006 65.26892 36730 ft 515 kts 87°
2026-05-04 21:30 22.96050 65.34678 36729 ft 515 kts 88°
2026-05-04 21:31 22.96092 65.46339 36729 ft 515 kts 88°
2026-05-04 21:32 22.96112 65.54110 36728 ft 516 kts 88°
2026-05-04 21:32 22.96128 65.61894 36727 ft 516 kts 88°
2026-05-04 21:33 22.96140 65.69663 36728 ft 516 kts 88°
2026-05-04 21:33 22.96148 65.77450 36726 ft 516 kts 88°
2026-05-04 21:34 22.96152 65.85280 36726 ft 516 kts 88°
2026-05-04 21:34 22.96152 65.93068 36725 ft 516 kts 88°
2026-05-04 21:35 22.96149 66.00848 36725 ft 516 kts 88°
2026-05-04 21:35 22.96142 66.08619 36724 ft 516 kts 88°
2026-05-04 21:36 22.96131 66.16409 36724 ft 516 kts 88°
2026-05-04 21:36 22.96116 66.24189 36724 ft 516 kts 88°
2026-05-04 21:37 22.96097 66.31969 36723 ft 516 kts 88°
2026-05-04 21:37 22.96075 66.39753 36723 ft 516 kts 88°
2026-05-04 21:38 22.96048 66.47538 36722 ft 516 kts 88°
2026-05-04 21:38 22.96019 66.55317 36723 ft 516 kts 88°
2026-05-04 21:39 22.95992 66.63100 36723 ft 516 kts 88°
2026-05-04 21:39 22.95968 66.70880 36723 ft 516 kts 88°
2026-05-04 21:40 22.95920 66.78712 36723 ft 516 kts 88°
2026-05-04 21:40 22.95867 66.86502 36723 ft 516 kts 88°
2026-05-04 21:41 22.95814 66.94289 36724 ft 516 kts 88°
2026-05-04 21:41 22.95798 67.02083 36724 ft 516 kts 87°
2026-05-04 21:42 22.95818 67.09871 36724 ft 516 kts 87°
2026-05-04 21:42 22.95826 67.17658 36723 ft 516 kts 88°
2026-05-04 21:43 22.95828 67.25450 36723 ft 516 kts 88°
2026-05-04 21:43 22.95827 67.33247 36724 ft 517 kts 87°
2026-05-04 21:44 22.95853 67.41038 36725 ft 517 kts 87°
2026-05-04 21:44 22.95860 67.48830 36725 ft 516 kts 87°
2026-05-04 21:45 22.95872 67.56621 36726 ft 516 kts 87°
2026-05-04 21:45 22.95866 67.64413 36727 ft 516 kts 88°
2026-05-04 21:46 22.95845 67.72214 36728 ft 517 kts 88°
2026-05-04 21:46 22.95822 67.80005 36729 ft 516 kts 88°
2026-05-04 21:47 22.95798 67.87852 36730 ft 516 kts 88°
2026-05-04 21:47 22.95803 67.94332 36730 ft 516 kts 87°
2026-05-04 21:48 22.95806 68.02123 36731 ft 516 kts 87°
2026-05-04 21:48 22.95836 68.09923 36732 ft 517 kts 87°
2026-05-04 21:49 22.95834 68.17730 36734 ft 518 kts 87°
2026-05-04 21:49 22.95822 68.25553 36735 ft 518 kts 87°
2026-05-04 21:50 22.95808 68.33361 36736 ft 518 kts 87°
2026-05-04 21:50 22.95736 68.41179 36737 ft 518 kts 90°
2026-05-04 21:51 22.95261 68.48990 36739 ft 519 kts 92°
2026-05-04 21:51 22.94717 68.56802 36740 ft 519 kts 91°
2026-05-04 21:52 22.94224 68.64665 36740 ft 519 kts 91°
2026-05-04 21:52 22.93748 68.72486 36742 ft 520 kts 91°
2026-05-04 21:53 22.93297 68.80307 36743 ft 520 kts 91°
2026-05-04 21:53 22.92844 68.88108 36743 ft 520 kts 91°
2026-05-04 21:54 22.92374 68.95957 36745 ft 520 kts 91°
2026-05-04 21:54 22.91899 69.03776 36746 ft 520 kts 91°
2026-05-04 21:55 22.91419 69.11597 36747 ft 520 kts 91°
2026-05-04 21:55 22.90935 69.19423 36747 ft 520 kts 91°
2026-05-04 21:56 22.90446 69.27247 36748 ft 520 kts 91°
2026-05-04 21:56 22.89955 69.35068 36748 ft 520 kts 91°
2026-05-04 21:57 22.89480 69.42889 36749 ft 520 kts 91°
2026-05-04 21:57 22.88976 69.50710 36749 ft 520 kts 91°
2026-05-04 21:58 22.88461 69.58584 36750 ft 520 kts 91°
2026-05-04 21:58 22.87948 69.66411 36750 ft 520 kts 91°
2026-05-04 21:59 22.87454 69.74232 36747 ft 520 kts 91°
2026-05-04 21:59 22.87004 69.82001 36747 ft 520 kts 91°
2026-05-04 22:00 22.86540 69.89821 36747 ft 520 kts 91°
2026-05-04 22:00 22.86068 69.97692 36747 ft 520 kts 91°
2026-05-04 22:01 22.85594 70.05513 36747 ft 521 kts 91°
2026-05-04 22:01 22.85143 70.13347 36748 ft 521 kts 91°
2026-05-04 22:02 22.84682 70.21200 36748 ft 521 kts 91°
2026-05-04 22:02 22.84207 70.29038 36747 ft 521 kts 91°
2026-05-04 22:03 22.83726 70.36886 36747 ft 522 kts 91°
2026-05-04 22:03 22.83241 70.44727 36747 ft 522 kts 91°
2026-05-04 22:04 22.82764 70.52637 36746 ft 522 kts 91°
2026-05-04 22:04 22.82274 70.60480 36747 ft 522 kts 91°
2026-05-04 22:05 22.81769 70.68332 36746 ft 522 kts 91°
2026-05-04 22:05 22.81260 70.76187 36746 ft 523 kts 91°
2026-05-04 22:06 22.80984 70.84039 36746 ft 520 kts 84°
2026-05-04 22:06 22.81789 70.91810 36746 ft 518 kts 77°
2026-05-04 22:07 22.83075 70.99477 36745 ft 516 kts 76°
2026-05-04 22:07 22.84325 71.07149 36745 ft 516 kts 77°
2026-05-04 22:08 22.85490 71.14833 36745 ft 517 kts 77°
2026-05-04 22:08 22.86646 71.22542 36745 ft 518 kts 77°
2026-05-04 22:09 22.87814 71.30243 36745 ft 518 kts 77°
2026-05-04 22:09 22.88963 71.37957 36747 ft 518 kts 77°
2026-05-04 22:10 22.90101 71.45664 36745 ft 518 kts 77°
2026-05-04 22:10 22.91235 71.53376 36746 ft 518 kts 77°
2026-05-04 22:11 22.92365 71.61099 36745 ft 518 kts 77°
2026-05-04 22:11 22.93492 71.68823 36745 ft 519 kts 77°
2026-05-04 22:12 22.94623 71.76604 36746 ft 519 kts 77°
2026-05-04 22:12 22.95742 71.84330 36747 ft 519 kts 77°
2026-05-04 22:13 22.96858 71.92061 36749 ft 519 kts 77°
2026-05-04 22:13 22.97969 71.99785 36750 ft 519 kts 77°
2026-05-04 22:14 22.99080 72.07536 36752 ft 521 kts 78°
2026-05-04 22:14 23.00192 72.15325 36753 ft 522 kts 78°
2026-05-04 22:15 23.01300 72.23109 36755 ft 522 kts 78°
2026-05-04 22:15 23.02422 72.30946 36756 ft 522 kts 77°
2026-05-04 22:16 23.03530 72.38727 36757 ft 522 kts 78°
2026-05-04 22:16 23.04618 72.46509 36757 ft 522 kts 78°
2026-05-04 22:17 23.05705 72.54316 36758 ft 522 kts 78°
2026-05-04 22:17 23.06791 72.62111 36758 ft 522 kts 78°
2026-05-04 22:18 23.07507 72.69972 36758 ft 524 kts 84°
2026-05-04 22:18 23.07780 72.76552 36758 ft 525 kts 85°
2026-05-04 22:19 23.08121 72.84485 36758 ft 526 kts 84°
2026-05-04 22:19 23.08524 72.92404 36758 ft 525 kts 84°
2026-05-04 22:20 23.08941 73.00323 36758 ft 525 kts 84°
2026-05-04 22:20 23.09395 73.08238 36758 ft 525 kts 84°
2026-05-04 22:21 23.09830 73.16157 36759 ft 526 kts 84°
2026-05-04 22:21 23.10255 73.24088 36761 ft 527 kts 84°
2026-05-04 22:22 23.10677 73.32080 36769 ft 527 kts 84°
2026-05-04 22:22 23.11093 73.40034 36772 ft 527 kts 84°
2026-05-04 22:23 23.11503 73.47981 36777 ft 527 kts 84°
2026-05-04 22:23 23.11910 73.55928 36780 ft 527 kts 84°
2026-05-04 22:24 23.12314 73.63886 36782 ft 527 kts 84°
2026-05-04 22:24 23.12712 73.71833 36785 ft 527 kts 84°
2026-05-04 22:25 23.13108 73.79786 36789 ft 527 kts 85°
2026-05-04 22:25 23.13500 73.87756 36793 ft 527 kts 85°
2026-05-04 22:26 23.13889 73.95762 36798 ft 528 kts 85°
2026-05-04 22:26 23.14291 74.03723 36803 ft 528 kts 85°
2026-05-04 22:27 23.14672 74.11701 36808 ft 529 kts 85°
2026-05-04 22:27 23.15040 74.19688 36814 ft 529 kts 85°
2026-05-04 22:28 23.15405 74.27672 36820 ft 529 kts 85°
2026-05-04 22:28 23.15767 74.35666 36826 ft 529 kts 86°
2026-05-04 22:29 23.15943 74.43663 36833 ft 530 kts 88°
2026-05-04 22:29 23.16065 74.51658 36838 ft 529 kts 88°
2026-05-04 22:30 23.16206 74.59699 36845 ft 529 kts 88°
2026-05-04 22:30 23.16348 74.67640 36852 ft 529 kts 88°
2026-05-04 22:31 23.16510 74.75629 36859 ft 529 kts 87°
2026-05-04 22:31 23.16678 74.83622 36864 ft 530 kts 88°
2026-05-04 22:32 23.16829 74.91628 36869 ft 529 kts 88°
2026-05-04 22:32 23.16972 74.99673 36874 ft 530 kts 88°
2026-05-04 22:33 23.17110 75.07672 36878 ft 530 kts 88°
2026-05-04 22:33 23.17243 75.15701 36881 ft 530 kts 88°
2026-05-04 22:34 23.17373 75.23772 36885 ft 530 kts 88°
2026-05-04 22:34 23.17498 75.31721 36888 ft 530 kts 88°
2026-05-04 22:35 23.17619 75.39745 36890 ft 530 kts 88°
2026-05-04 22:35 23.17737 75.47810 36892 ft 530 kts 89°
2026-05-04 22:36 23.17849 75.55777 36894 ft 530 kts 89°
2026-05-04 22:36 23.17958 75.63790 36895 ft 530 kts 89°
2026-05-04 22:37 23.18083 75.71859 36893 ft 530 kts 89°
2026-05-04 22:37 23.18180 75.79819 36894 ft 530 kts 89°
2026-05-04 22:38 23.18269 75.87840 36897 ft 530 kts 89°
2026-05-04 22:38 23.18356 75.95863 36896 ft 530 kts 89°
2026-05-04 22:39 23.18549 76.03875 36894 ft 530 kts 86°
2026-05-04 22:39 23.19202 76.11857 36892 ft 530 kts 84°
2026-05-04 22:40 23.19899 76.19835 36889 ft 530 kts 85°
2026-05-04 22:40 23.20524 76.27825 36885 ft 530 kts 85°
2026-05-04 22:41 23.21129 76.35823 36881 ft 530 kts 85°
2026-05-04 22:41 23.21757 76.43810 36876 ft 530 kts 85°
2026-05-04 22:42 23.22370 76.51795 36871 ft 530 kts 85°
2026-05-04 22:42 23.22964 76.59702 36867 ft 530 kts 85°
2026-05-04 22:43 23.23560 76.67725 36862 ft 530 kts 85°
2026-05-04 22:43 23.24148 76.75699 36858 ft 529 kts 85°
2026-05-04 22:44 23.24732 76.83681 36855 ft 529 kts 86°
2026-05-04 22:44 23.25311 76.91655 36852 ft 529 kts 86°
2026-05-04 22:45 23.25891 76.99643 36850 ft 529 kts 86°
2026-05-04 22:45 23.26760 77.11578 36848 ft 528 kts 86°
2026-05-04 22:46 23.27315 77.19532 36847 ft 528 kts 86°
2026-05-04 22:46 23.27868 77.27489 36847 ft 527 kts 86°
2026-05-04 22:47 23.28336 77.35437 36847 ft 527 kts 90°
2026-05-04 22:47 23.28128 77.43402 36847 ft 526 kts 95°
2026-05-04 22:48 23.27646 77.51346 36846 ft 525 kts 95°
2026-05-04 22:48 23.27251 77.59269 36846 ft 525 kts 95°
2026-05-04 22:49 23.26897 77.67209 36846 ft 525 kts 95°
2026-05-04 22:49 23.26570 77.75133 36847 ft 525 kts 94°
2026-05-04 22:50 23.26250 77.83070 36848 ft 525 kts 94°
2026-05-04 22:50 23.25913 77.90992 36848 ft 525 kts 95°
2026-05-04 22:51 23.25568 77.98901 36848 ft 525 kts 95°
2026-05-04 22:51 23.25215 78.06905 36848 ft 524 kts 95°
2026-05-04 22:52 23.24862 78.14819 36848 ft 524 kts 95°
2026-05-04 22:52 23.24504 78.22745 36848 ft 525 kts 95°
2026-05-04 22:53 23.24145 78.30609 36846 ft 525 kts 95°
2026-05-04 22:53 23.23839 78.37246 36845 ft 525 kts 95°
2026-05-04 22:54 23.23489 78.45179 36844 ft 525 kts 95°
2026-05-04 22:54 23.23114 78.53100 36844 ft 525 kts 95°
2026-05-04 22:55 23.22727 78.61065 36843 ft 524 kts 95°
2026-05-04 22:55 23.22339 78.68995 36842 ft 525 kts 96°
2026-05-04 22:56 23.21978 78.76920 36841 ft 525 kts 94°
2026-05-04 22:56 23.21879 78.84858 36840 ft 526 kts 92°
2026-05-04 22:57 23.21791 78.92791 36839 ft 526 kts 93°
2026-05-04 22:57 23.21666 79.00777 36838 ft 527 kts 93°
2026-05-04 22:58 23.21531 79.08792 36825 ft 526 kts 94°
2026-05-04 22:58 23.21417 79.16686 36821 ft 526 kts 93°
2026-05-04 22:59 23.21303 79.24686 36820 ft 527 kts 93°
2026-05-04 22:59 23.21171 79.32661 36819 ft 527 kts 94°
2026-05-04 23:00 23.21018 79.40625 36818 ft 527 kts 94°
2026-05-04 23:00 23.20861 79.48632 36817 ft 527 kts 94°
2026-05-04 23:01 23.20704 79.56599 36816 ft 527 kts 94°
2026-05-04 23:01 23.20413 79.64549 36815 ft 527 kts 96°
2026-05-04 23:02 23.20047 79.72504 36813 ft 526 kts 95°
2026-05-04 23:02 23.19730 79.80445 36813 ft 526 kts 95°
2026-05-04 23:03 23.19384 79.88400 36813 ft 527 kts 96°
2026-05-04 23:03 23.19030 79.96397 36812 ft 527 kts 96°
2026-05-04 23:04 23.18678 80.04347 36821 ft 526 kts 96°
2026-05-04 23:04 23.18291 80.12297 36820 ft 526 kts 97°
2026-05-04 23:05 23.17868 80.20280 36820 ft 526 kts 97°
2026-05-04 23:05 23.17449 80.28224 36820 ft 526 kts 97°
2026-05-04 23:06 23.17029 80.36151 36820 ft 526 kts 97°
2026-05-04 23:06 23.16625 80.44080 36820 ft 526 kts 96°
2026-05-04 23:07 23.16229 80.52071 36820 ft 525 kts 97°
2026-05-04 23:07 23.15798 80.59999 36820 ft 525 kts 97°
2026-05-04 23:08 23.15362 80.67912 36820 ft 525 kts 97°
2026-05-04 23:08 23.14926 80.75828 36820 ft 525 kts 97°
2026-05-04 23:09 23.14491 80.83732 36820 ft 525 kts 97°
2026-05-04 23:09 23.14048 80.91646 36821 ft 525 kts 97°
2026-05-04 23:10 23.13601 80.99549 36820 ft 524 kts 97°
2026-05-04 23:10 23.13151 81.07436 36821 ft 523 kts 97°
2026-05-04 23:11 23.12703 81.15333 36823 ft 523 kts 97°
2026-05-04 23:11 23.12281 81.23229 36823 ft 524 kts 97°
2026-05-04 23:12 23.11837 81.31119 36822 ft 523 kts 97°
2026-05-04 23:12 23.11384 81.38997 36823 ft 523 kts 97°
2026-05-04 23:13 23.10925 81.46882 36822 ft 523 kts 97°
2026-05-04 23:13 23.10461 81.54765 36830 ft 522 kts 97°
2026-05-04 23:14 23.09993 81.62676 36832 ft 522 kts 97°
2026-05-04 23:14 23.09522 81.70555 36833 ft 522 kts 97°
2026-05-04 23:15 23.09048 81.78430 36836 ft 522 kts 98°
2026-05-04 23:15 23.08587 81.86295 36837 ft 522 kts 97°
2026-05-04 23:16 23.08106 81.94174 36838 ft 522 kts 98°
2026-05-04 23:16 23.07614 82.02018 36838 ft 521 kts 98°
2026-05-04 23:17 23.07118 82.09869 36838 ft 521 kts 98°
2026-05-04 23:17 23.06625 82.17711 36838 ft 520 kts 97°
2026-05-04 23:18 23.06268 82.25607 36839 ft 520 kts 96°
2026-05-04 23:18 23.05939 82.33461 36839 ft 521 kts 96°
2026-05-04 23:19 23.05589 82.41319 36840 ft 520 kts 96°
2026-05-04 23:19 23.05232 82.49155 36841 ft 520 kts 96°
2026-05-04 23:20 23.04883 82.57002 36841 ft 520 kts 96°
2026-05-04 23:20 23.04605 82.63563 36842 ft 520 kts 96°
2026-05-04 23:21 23.04255 82.71400 36843 ft 519 kts 96°
2026-05-04 23:21 23.03892 82.79275 36843 ft 519 kts 96°
2026-05-04 23:22 23.03526 82.87100 36844 ft 519 kts 96°
2026-05-04 23:22 23.03156 82.94912 36886 ft 518 kts 96°
2026-05-04 23:23 23.02782 83.02714 36891 ft 518 kts 96°
2026-05-04 23:23 23.02405 83.10526 36894 ft 517 kts 96°
2026-05-04 23:24 23.02024 83.18320 36897 ft 517 kts 96°
2026-05-04 23:24 23.01639 83.26123 36901 ft 517 kts 96°
2026-05-04 23:25 23.01250 83.33915 36904 ft 517 kts 96°
2026-05-04 23:25 23.00859 83.41702 36908 ft 516 kts 96°
2026-05-04 23:26 23.00461 83.49534 36912 ft 516 kts 96°
2026-05-04 23:26 23.00064 83.57261 36916 ft 516 kts 96°
2026-05-04 23:27 22.99658 83.65093 36920 ft 516 kts 97°
2026-05-04 23:27 22.99252 83.72869 36924 ft 515 kts 96°
2026-05-04 23:28 22.98853 83.80634 36928 ft 515 kts 96°
2026-05-04 23:28 22.98449 83.88399 36932 ft 515 kts 97°
2026-05-04 23:29 22.98025 83.96150 36936 ft 515 kts 97°
2026-05-04 23:29 22.97598 84.03887 36941 ft 515 kts 96°
2026-05-04 23:30 22.97168 84.11661 36945 ft 514 kts 96°
2026-05-04 23:30 22.96687 84.19125 36949 ft 514 kts 98°
2026-05-04 23:31 22.96107 84.26794 36953 ft 514 kts 98°
2026-05-04 23:31 22.95530 84.34559 36957 ft 513 kts 98°
2026-05-04 23:32 22.94959 84.42293 36961 ft 513 kts 98°
2026-05-04 23:32 22.94386 84.50022 36965 ft 513 kts 97°
2026-05-04 23:33 22.93844 84.57731 36968 ft 513 kts 97°
2026-05-04 23:33 22.93280 84.65467 36972 ft 514 kts 97°
2026-05-04 23:34 22.92708 84.73183 36975 ft 514 kts 98°
2026-05-04 23:34 22.92137 84.80896 36978 ft 514 kts 97°
2026-05-04 23:35 22.91592 84.88306 36980 ft 514 kts 98°
2026-05-04 23:35 22.91001 84.96012 36982 ft 514 kts 98°
2026-05-04 23:36 22.90402 85.03744 36978 ft 514 kts 98°
2026-05-04 23:36 22.89804 85.11458 36980 ft 514 kts 98°
2026-05-04 23:37 22.89203 85.19198 36981 ft 514 kts 98°
2026-05-04 23:37 22.88596 85.26907 36982 ft 514 kts 98°
2026-05-04 23:38 22.87983 85.34637 36986 ft 514 kts 98°
2026-05-04 23:38 22.87363 85.42413 36987 ft 514 kts 98°
2026-05-04 23:39 22.86849 85.48825 36986 ft 514 kts 98°
2026-05-04 23:39 22.86176 85.57520 36985 ft 514 kts 97°
2026-05-04 23:40 22.85569 85.65251 36983 ft 514 kts 98°
2026-05-04 23:40 22.84949 85.72972 36981 ft 514 kts 98°
2026-05-04 23:41 22.84324 85.80690 36980 ft 514 kts 98°
2026-05-04 23:41 22.83714 85.88406 36981 ft 514 kts 98°
2026-05-04 23:42 22.83082 85.96105 36979 ft 513 kts 98°
2026-05-04 23:42 22.82434 86.03860 36977 ft 514 kts 98°
2026-05-04 23:43 22.81791 86.11533 36975 ft 514 kts 98°
2026-05-04 23:43 22.81197 86.18668 36956 ft 514 kts 97°
2026-05-04 23:44 22.80745 86.26452 36939 ft 515 kts 95°
2026-05-04 23:44 22.80366 86.34195 36934 ft 515 kts 96°
2026-05-04 23:45 22.79953 86.41939 36928 ft 514 kts 96°
2026-05-04 23:45 22.79524 86.49683 36923 ft 514 kts 96°
2026-05-04 23:46 22.79103 86.57415 36918 ft 514 kts 95°
2026-05-04 23:46 22.78698 86.65154 36913 ft 514 kts 96°
2026-05-04 23:47 22.78273 86.72893 36909 ft 514 kts 96°
2026-05-04 23:47 22.77839 86.80630 36906 ft 515 kts 96°
2026-05-04 23:48 22.77417 86.88063 36903 ft 515 kts 96°
2026-05-04 23:48 22.76970 86.95870 36900 ft 515 kts 96°
2026-05-04 23:49 22.76523 87.03597 36898 ft 514 kts 96°
2026-05-04 23:49 22.76071 87.11344 36896 ft 514 kts 96°
2026-05-04 23:50 22.75618 87.19061 36894 ft 514 kts 96°
2026-05-04 23:50 22.75233 87.25548 36893 ft 514 kts 96°
2026-05-04 23:51 22.74772 87.33281 36876 ft 514 kts 96°
2026-05-04 23:51 22.74307 87.41002 36876 ft 514 kts 96°
2026-05-04 23:52 22.73840 87.48705 36876 ft 514 kts 96°
2026-05-04 23:52 22.73387 87.56115 36876 ft 513 kts 95°
2026-05-04 23:53 22.72911 87.63842 36876 ft 513 kts 96°
2026-05-04 23:53 22.72435 87.71497 36877 ft 513 kts 95°
2026-05-04 23:54 22.71952 87.79224 36877 ft 512 kts 95°
2026-05-04 23:54 22.71466 87.86926 36877 ft 512 kts 95°
2026-05-04 23:55 22.70976 87.94646 36877 ft 513 kts 95°
2026-05-04 23:56 22.70234 88.06205 36878 ft 512 kts 95°
2026-05-04 23:56 22.69750 88.13924 36878 ft 512 kts 95°
2026-05-04 23:57 22.69278 88.21236 36879 ft 512 kts 95°
2026-05-04 23:57 22.68762 88.28974 36879 ft 512 kts 96°
2026-05-04 23:58 22.68247 88.36651 36880 ft 512 kts 96°
2026-05-04 23:58 22.67730 88.44295 36880 ft 512 kts 96°
2026-05-04 23:59 22.66713 88.51835 36881 ft 511 kts 103°
2026-05-04 23:59 22.65289 88.59416 36882 ft 510 kts 103°
2026-05-05 00:00 22.64000 88.66974 36882 ft 510 kts 102°
2026-05-05 00:00 22.62738 88.74467 36883 ft 510 kts 102°
2026-05-05 00:01 22.61447 88.82068 36884 ft 510 kts 102°
2026-05-05 00:01 22.60198 88.89409 36885 ft 510 kts 102°
2026-05-05 00:02 22.58964 88.96951 36886 ft 510 kts 100°
2026-05-05 00:02 22.58113 89.04594 36887 ft 511 kts 98°
2026-05-05 00:03 22.57348 89.12235 36887 ft 511 kts 98°
2026-05-05 00:03 22.56525 89.19861 36888 ft 510 kts 98°
2026-05-05 00:04 22.55680 89.27456 36893 ft 510 kts 99°
2026-05-05 00:04 22.54837 89.35134 36894 ft 510 kts 98°
2026-05-05 00:05 22.54006 89.42743 36894 ft 509 kts 99°
2026-05-05 00:05 22.53179 89.50156 36895 ft 509 kts 99°
2026-05-05 00:06 22.52326 89.57740 36895 ft 508 kts 99°
2026-05-05 00:06 22.51467 89.65326 36896 ft 508 kts 99°
2026-05-05 00:07 22.50605 89.72899 36897 ft 508 kts 99°
2026-05-05 00:07 22.49746 89.80420 36897 ft 507 kts 99°
2026-05-05 00:08 22.48871 89.88038 36898 ft 507 kts 99°
2026-05-05 00:08 22.47995 89.95641 36898 ft 507 kts 99°
2026-05-05 00:09 22.47126 90.03150 36899 ft 506 kts 99°
2026-05-05 00:09 22.46243 90.10752 36899 ft 506 kts 99°
2026-05-05 00:10 22.45393 90.18033 36900 ft 506 kts 99°
2026-05-05 00:10 22.44509 90.25580 36900 ft 506 kts 99°
2026-05-05 00:11 22.43620 90.33135 36900 ft 506 kts 99°
2026-05-05 00:11 22.42728 90.40684 36900 ft 507 kts 99°
2026-05-05 00:12 22.41833 90.48233 36903 ft 507 kts 99°
2026-05-05 00:12 22.40927 90.55841 36904 ft 507 kts 99°
2026-05-05 00:13 22.40030 90.63348 36904 ft 507 kts 99°
2026-05-05 00:13 22.39116 90.70957 36904 ft 507 kts 99°
2026-05-05 00:14 22.38200 90.78556 36905 ft 512 kts 99°
2026-05-05 00:14 22.37304 90.85967 36905 ft 513 kts 99°
2026-05-05 00:15 22.36371 90.93644 36905 ft 512 kts 99°
2026-05-05 00:15 22.35441 91.01273 36905 ft 511 kts 99°
2026-05-05 00:16 22.34526 91.08894 36905 ft 512 kts 99°
2026-05-05 00:16 22.33750 91.15217 36905 ft 512 kts 99°
2026-05-05 00:17 22.32802 91.22844 36905 ft 511 kts 99°
2026-05-05 00:17 22.31857 91.30427 36905 ft 511 kts 99°
2026-05-05 00:18 22.30900 91.38101 36905 ft 510 kts 99°
2026-05-05 00:18 22.30026 91.45700 36905 ft 511 kts 98°
2026-05-05 00:19 22.29214 91.53097 36905 ft 510 kts 98°
2026-05-05 00:19 22.28353 91.60697 36905 ft 510 kts 98°
2026-05-05 00:20 22.27478 91.68284 36905 ft 510 kts 98°
2026-05-05 00:20 22.26600 91.75883 36905 ft 510 kts 98°
2026-05-05 00:21 22.26062 91.83504 36907 ft 510 kts 89°
2026-05-05 00:21 22.26818 91.91117 36906 ft 511 kts 81°
2026-05-05 00:21 22.27406 91.94894 36743 ft 508 kts 80°
2026-05-05 00:22 22.27986 91.98638 37476 ft 510 kts 81°
2026-05-05 00:22 22.28537 92.02477 37079 ft 523 kts 82°
2026-05-05 00:22 22.29072 92.06359 36947 ft 522 kts 82°
2026-05-05 00:23 22.30131 92.14171 36838 ft 520 kts 82°
2026-05-05 00:23 22.31167 92.21799 36902 ft 513 kts 82°
2026-05-05 00:24 22.32199 92.29391 36905 ft 511 kts 82°
2026-05-05 00:24 22.33246 92.37034 36905 ft 511 kts 82°
2026-05-05 00:25 22.34303 92.44630 36905 ft 511 kts 81°
2026-05-05 00:25 22.35347 92.52232 36904 ft 511 kts 82°
2026-05-05 00:26 22.36374 92.59842 36904 ft 512 kts 82°
2026-05-05 00:26 22.37399 92.67460 36911 ft 512 kts 82°
2026-05-05 00:27 22.38423 92.75071 36914 ft 512 kts 82°
2026-05-05 00:27 22.39448 92.82695 36915 ft 512 kts 82°
2026-05-05 00:28 22.40463 92.90305 36916 ft 512 kts 82°
2026-05-05 00:28 22.41473 92.97917 36917 ft 512 kts 82°
2026-05-05 00:29 22.42481 93.05553 36918 ft 513 kts 82°
2026-05-05 00:29 22.43490 93.13185 36920 ft 513 kts 81°
2026-05-05 00:30 22.44536 93.20869 36921 ft 513 kts 82°
2026-05-05 00:30 22.45553 93.28490 36922 ft 513 kts 82°
2026-05-05 00:31 22.46558 93.36087 36922 ft 513 kts 82°
2026-05-05 00:31 22.47567 93.43769 36924 ft 513 kts 82°
2026-05-05 00:32 22.48565 93.51400 36925 ft 513 kts 82°
2026-05-05 00:32 22.49558 93.59028 36925 ft 513 kts 82°
2026-05-05 00:33 22.50548 93.66667 36926 ft 513 kts 82°
2026-05-05 00:33 22.51531 93.74272 36927 ft 513 kts 82°
2026-05-05 00:34 22.52519 93.81944 36927 ft 513 kts 82°
2026-05-05 00:34 22.53504 93.89627 36927 ft 513 kts 82°
2026-05-05 00:35 22.54479 93.97264 36898 ft 513 kts 82°
2026-05-05 00:35 22.55450 94.04895 36895 ft 512 kts 82°
2026-05-05 00:36 22.56417 94.12520 36897 ft 511 kts 82°
2026-05-05 00:36 22.57381 94.20155 36898 ft 512 kts 82°
2026-05-05 00:37 22.58340 94.27780 36897 ft 511 kts 82°
2026-05-05 00:37 22.59296 94.35406 36896 ft 511 kts 82°
2026-05-05 00:38 22.60246 94.43022 36896 ft 511 kts 82°
2026-05-05 00:38 22.61202 94.50712 36895 ft 511 kts 82°
2026-05-05 00:39 22.62146 94.58339 36930 ft 511 kts 82°
2026-05-05 00:39 22.63088 94.65972 36930 ft 511 kts 82°
2026-05-05 00:40 22.64024 94.73595 36928 ft 511 kts 82°
2026-05-05 00:40 22.64957 94.81221 36926 ft 511 kts 82°
2026-05-05 00:41 22.65887 94.88850 36924 ft 511 kts 82°
2026-05-05 00:41 22.66812 94.96474 36922 ft 511 kts 82°
2026-05-05 00:42 22.67736 95.04112 36923 ft 511 kts 82°
2026-05-05 00:42 22.68653 95.11730 36923 ft 510 kts 82°
2026-05-05 00:43 22.69568 95.19363 36921 ft 510 kts 82°
2026-05-05 00:43 22.70477 95.26976 36919 ft 510 kts 82°
2026-05-05 00:44 22.71383 95.34591 36917 ft 510 kts 82°
2026-05-05 00:44 22.72285 95.42208 36916 ft 510 kts 82°
2026-05-05 00:45 22.73183 95.49824 36914 ft 510 kts 82°
2026-05-05 00:45 22.74079 95.57447 36913 ft 510 kts 82°
2026-05-05 00:46 22.74971 95.65077 36912 ft 510 kts 82°
2026-05-05 00:46 22.75857 95.72682 36911 ft 509 kts 82°
2026-05-05 00:47 22.76740 95.80294 36911 ft 509 kts 82°
2026-05-05 00:47 22.77618 95.87898 36910 ft 509 kts 82°
2026-05-05 00:48 22.78492 95.95499 36910 ft 509 kts 82°
2026-05-05 00:48 22.79223 96.01878 36912 ft 509 kts 82°
2026-05-05 00:49 22.80090 96.09474 36913 ft 508 kts 82°
2026-05-05 00:49 22.80952 96.17065 36914 ft 507 kts 82°
2026-05-05 00:50 22.81811 96.24658 36915 ft 508 kts 82°
2026-05-05 00:50 22.82667 96.32257 36916 ft 507 kts 82°
2026-05-05 00:51 22.83519 96.39849 36917 ft 507 kts 82°
2026-05-05 00:51 22.84366 96.47434 36918 ft 507 kts 82°
2026-05-05 00:52 22.85210 96.55026 36920 ft 507 kts 82°
2026-05-05 00:52 22.86050 96.62618 36922 ft 507 kts 82°
2026-05-05 00:53 22.86887 96.70206 36924 ft 506 kts 82°
2026-05-05 00:53 22.87719 96.77789 36926 ft 506 kts 82°
2026-05-05 00:54 22.88546 96.85364 36928 ft 506 kts 82°
2026-05-05 00:54 22.89371 96.92948 36930 ft 506 kts 82°
2026-05-05 00:55 22.90190 97.00518 36933 ft 506 kts 82°
2026-05-05 00:55 22.91008 97.08106 36936 ft 506 kts 82°
2026-05-05 00:56 22.91821 97.15684 36938 ft 505 kts 82°
2026-05-05 00:56 22.92629 97.23244 36941 ft 505 kts 82°
2026-05-05 00:57 22.93433 97.30809 36944 ft 505 kts 82°
2026-05-05 00:57 22.94234 97.38378 36947 ft 505 kts 82°
2026-05-05 00:58 22.95049 97.45940 36950 ft 505 kts 82°
2026-05-05 00:58 22.95842 97.53501 36953 ft 505 kts 82°
2026-05-05 00:59 22.96625 97.61078 36956 ft 504 kts 82°
2026-05-05 00:59 22.97404 97.68643 36960 ft 504 kts 82°
2026-05-05 01:00 22.98441 97.76161 36964 ft 503 kts 75°
2026-05-05 01:00 23.00547 97.83388 36976 ft 501 kts 68°
2026-05-05 01:01 23.03101 97.90424 36982 ft 500 kts 66°
2026-05-05 01:01 23.05610 97.97475 36987 ft 500 kts 67°
2026-05-05 01:02 23.08037 98.04543 36991 ft 500 kts 68°
2026-05-05 01:02 23.10454 98.11629 36995 ft 500 kts 67°
2026-05-05 01:03 23.12892 98.18715 37000 ft 500 kts 67°
2026-05-05 01:03 23.15298 98.25776 37004 ft 500 kts 68°
2026-05-05 01:04 23.17727 98.32932 37008 ft 500 kts 68°
2026-05-05 01:04 23.21328 98.43572 37015 ft 500 kts 68°
2026-05-05 01:05 23.23725 98.50669 37020 ft 500 kts 68°
2026-05-05 01:05 23.26109 98.57742 37024 ft 500 kts 68°
2026-05-05 01:06 23.28541 98.64910 37029 ft 500 kts 67°
2026-05-05 01:06 23.30927 98.72019 37034 ft 500 kts 68°
2026-05-05 01:07 23.33288 98.79083 37045 ft 500 kts 68°
2026-05-05 01:07 23.35673 98.86226 37051 ft 500 kts 67°
2026-05-05 01:08 23.38045 98.93352 37056 ft 500 kts 68°
2026-05-05 01:08 23.40263 99.00476 37060 ft 500 kts 69°
2026-05-05 01:09 23.42487 99.07655 37065 ft 500 kts 68°
2026-05-05 01:09 23.44763 99.14870 37070 ft 500 kts 68°
2026-05-05 01:10 23.46995 99.22045 37074 ft 500 kts 69°
2026-05-05 01:10 23.49214 99.29210 37079 ft 500 kts 69°
2026-05-05 01:11 23.51434 99.36385 37084 ft 500 kts 68°
2026-05-05 01:11 23.53987 99.43413 37089 ft 498 kts 60°
2026-05-05 01:12 23.57324 99.50006 37093 ft 495 kts 56°
2026-05-05 01:12 23.60856 99.56426 37098 ft 494 kts 56°
2026-05-05 01:13 23.64301 99.62904 37103 ft 494 kts 56°
2026-05-05 01:13 23.67697 99.69413 37108 ft 494 kts 56°
2026-05-05 01:14 23.71096 99.75930 37114 ft 494 kts 56°
2026-05-05 01:14 23.74502 99.82443 37119 ft 494 kts 56°
2026-05-05 01:15 23.77886 99.88954 37124 ft 494 kts 56°
2026-05-05 01:15 23.81269 99.95481 37156 ft 494 kts 56°
2026-05-05 01:16 23.84644 100.02004 37156 ft 494 kts 56°
2026-05-05 01:16 23.88027 100.08552 37158 ft 494 kts 56°
2026-05-05 01:17 23.91397 100.15084 37162 ft 494 kts 56°
2026-05-05 01:17 23.94768 100.21625 37167 ft 494 kts 56°
2026-05-05 01:18 23.98144 100.28155 37171 ft 494 kts 56°
2026-05-05 01:18 24.01514 100.34704 37176 ft 494 kts 56°
2026-05-05 01:19 24.04869 100.41258 37181 ft 494 kts 56°
2026-05-05 01:19 24.08229 100.47830 37186 ft 495 kts 56°
2026-05-05 01:20 24.11592 100.54407 37192 ft 495 kts 56°
2026-05-05 01:20 24.14940 100.61046 37197 ft 495 kts 57°
2026-05-05 01:21 24.17691 100.66551 37202 ft 496 kts 57°
2026-05-05 01:21 24.20999 100.73179 37207 ft 496 kts 57°
2026-05-05 01:22 24.24310 100.79820 37213 ft 496 kts 57°
2026-05-05 01:22 24.27612 100.86450 37219 ft 496 kts 57°
2026-05-05 01:23 24.30937 100.93081 37225 ft 496 kts 56°
2026-05-05 01:23 24.34276 100.99758 37230 ft 496 kts 56°
2026-05-05 01:24 24.37591 101.06416 37236 ft 497 kts 57°
2026-05-05 01:24 24.40894 101.13065 37242 ft 497 kts 57°
2026-05-05 01:25 24.44195 101.19722 37248 ft 497 kts 57°
2026-05-05 01:25 24.47503 101.26390 37253 ft 497 kts 56°
2026-05-05 01:26 24.50812 101.33048 37259 ft 497 kts 57°
2026-05-05 01:26 24.54102 101.39724 37265 ft 497 kts 57°
2026-05-05 01:27 24.57389 101.46407 37268 ft 497 kts 57°
2026-05-05 01:27 24.60665 101.53105 37271 ft 497 kts 59°
2026-05-05 01:28 24.62913 101.60367 37275 ft 504 kts 77°
2026-05-05 01:28 24.63243 101.68108 37284 ft 511 kts 87°
2026-05-05 01:29 24.63297 101.75932 37287 ft 512 kts 86°
2026-05-05 01:29 24.63583 101.83745 37291 ft 511 kts 84°
2026-05-05 01:30 24.63947 101.91546 37295 ft 511 kts 84°
2026-05-05 01:30 24.64329 101.99346 37298 ft 511 kts 84°
2026-05-05 01:31 24.64703 102.07146 37302 ft 511 kts 84°
2026-05-05 01:31 24.65062 102.14952 37305 ft 512 kts 84°
2026-05-05 01:32 24.65420 102.22770 37307 ft 512 kts 84°
2026-05-05 01:32 24.65785 102.30587 37309 ft 512 kts 84°
2026-05-05 01:33 24.66122 102.38417 37311 ft 513 kts 84°
2026-05-05 01:33 24.66454 102.46256 37313 ft 513 kts 84°
2026-05-05 01:34 24.66786 102.54099 37313 ft 514 kts 84°
2026-05-05 01:34 24.67183 102.61940 37314 ft 513 kts 83°
2026-05-05 01:35 24.67694 102.69820 37314 ft 514 kts 83°
2026-05-05 01:35 24.68075 102.77671 37313 ft 515 kts 88°
2026-05-05 01:36 24.67004 102.85381 37314 ft 518 kts 108°
2026-05-05 01:36 24.64165 102.92741 37313 ft 520 kts 113°
2026-05-05 01:37 24.61498 103.00143 37309 ft 520 kts 110°
2026-05-05 01:37 24.59020 103.07600 37307 ft 520 kts 110°
2026-05-05 01:38 24.56515 103.15041 37301 ft 519 kts 109°
2026-05-05 01:38 24.54985 103.22752 37300 ft 518 kts 93°
2026-05-05 01:39 24.54904 103.30641 37297 ft 516 kts 87°
2026-05-05 01:39 24.54907 103.38526 37293 ft 515 kts 88°
2026-05-05 01:40 24.54797 103.46388 37290 ft 516 kts 89°
2026-05-05 01:40 24.54635 103.54274 37286 ft 516 kts 89°
2026-05-05 01:41 24.54465 103.62145 37281 ft 516 kts 89°
2026-05-05 01:41 24.54293 103.70027 37277 ft 516 kts 89°
2026-05-05 01:42 24.53636 103.77877 37273 ft 517 kts 98°
2026-05-05 01:42 24.52056 103.85587 37267 ft 518 kts 103°
2026-05-05 01:43 24.50238 103.93242 37261 ft 518 kts 103°
2026-05-05 01:43 24.48526 104.00907 37255 ft 518 kts 103°
2026-05-05 01:44 24.46853 104.08607 37250 ft 518 kts 103°
2026-05-05 01:44 24.45220 104.16286 37244 ft 518 kts 102°
2026-05-05 01:45 24.43577 104.23998 37239 ft 518 kts 102°
2026-05-05 01:45 24.41912 104.31738 37233 ft 518 kts 102°
2026-05-05 01:46 24.40261 104.39384 37228 ft 519 kts 103°
2026-05-05 01:46 24.38596 104.47068 37222 ft 519 kts 103°
2026-05-05 01:47 24.36921 104.54777 37217 ft 519 kts 103°
2026-05-05 01:47 24.35233 104.62522 37212 ft 519 kts 103°
2026-05-05 01:48 24.33550 104.70232 37207 ft 520 kts 103°
2026-05-05 01:48 24.31865 104.77927 37202 ft 519 kts 103°
2026-05-05 01:49 24.30172 104.85635 37198 ft 520 kts 103°
2026-05-05 01:49 24.28494 104.93353 37193 ft 520 kts 103°
2026-05-05 01:50 24.26791 105.01065 37189 ft 520 kts 103°
2026-05-05 01:50 24.25077 105.08773 37185 ft 520 kts 103°
2026-05-05 01:51 24.23362 105.16476 37181 ft 521 kts 103°
2026-05-05 01:51 24.21638 105.24178 37177 ft 521 kts 104°
2026-05-05 01:52 24.19751 105.31882 37174 ft 521 kts 105°
2026-05-05 01:52 24.18203 105.38242 37171 ft 521 kts 104°
2026-05-05 01:53 24.16360 105.45914 37168 ft 521 kts 104°
2026-05-05 01:53 24.14492 105.53576 37165 ft 520 kts 104°
2026-05-05 01:54 24.12620 105.61225 37162 ft 520 kts 104°
2026-05-05 01:54 24.10750 105.68866 37159 ft 520 kts 104°
2026-05-05 01:55 24.09031 105.76542 37157 ft 519 kts 102°
2026-05-05 01:55 24.07564 105.84281 37137 ft 519 kts 101°
2026-05-05 01:56 24.06053 105.91991 37131 ft 519 kts 102°
2026-05-05 01:56 24.04509 105.99702 37128 ft 519 kts 102°
2026-05-05 01:57 24.02959 106.07408 37124 ft 519 kts 102°
2026-05-05 01:57 24.01438 106.15110 37122 ft 519 kts 102°
2026-05-05 01:58 23.99889 106.22826 37119 ft 519 kts 102°
2026-05-05 01:58 23.98353 106.30523 37116 ft 519 kts 102°
2026-05-05 01:59 23.96795 106.38220 37113 ft 518 kts 102°
2026-05-05 01:59 23.95226 106.45899 37111 ft 518 kts 102°
2026-05-05 02:00 23.93656 106.53574 37108 ft 518 kts 102°
2026-05-05 02:00 23.92183 106.61267 37105 ft 517 kts 98°
2026-05-05 02:01 23.91471 106.69076 37104 ft 516 kts 92°
2026-05-05 02:01 23.91102 106.76890 37081 ft 516 kts 92°
2026-05-05 02:02 23.90645 106.84719 37075 ft 515 kts 92°
2026-05-05 02:02 23.90128 106.92529 37074 ft 516 kts 93°
2026-05-05 02:03 23.89609 107.00352 37074 ft 516 kts 92°
2026-05-05 02:03 23.89103 107.08165 37073 ft 516 kts 93°
2026-05-05 02:04 23.88577 107.15982 37072 ft 516 kts 93°
2026-05-05 02:04 23.88041 107.23801 37071 ft 516 kts 93°
2026-05-05 02:05 23.87500 107.31611 37071 ft 516 kts 93°
2026-05-05 02:05 23.86955 107.39438 37070 ft 517 kts 93°
2026-05-05 02:06 23.86401 107.47325 37069 ft 517 kts 93°
2026-05-05 02:06 23.85870 107.55095 37068 ft 517 kts 93°
2026-05-05 02:07 23.85307 107.62996 37067 ft 518 kts 94°
2026-05-05 02:07 23.84737 107.70818 37066 ft 518 kts 94°
2026-05-05 02:08 23.84163 107.78673 37066 ft 518 kts 94°
2026-05-05 02:08 23.83594 107.86516 37065 ft 519 kts 93°
2026-05-05 02:09 23.83220 107.94378 37065 ft 519 kts 91°
2026-05-05 02:09 23.82831 108.02248 37064 ft 518 kts 92°
2026-05-05 02:10 23.82420 108.10102 37064 ft 518 kts 92°
2026-05-05 02:10 23.82006 108.17961 37063 ft 518 kts 92°
2026-05-05 02:11 23.81556 108.25819 37064 ft 518 kts 92°
2026-05-05 02:11 23.81101 108.33677 37063 ft 517 kts 92°
2026-05-05 02:12 23.80414 108.45434 37062 ft 517 kts 92°
2026-05-05 02:13 23.79953 108.53272 37063 ft 517 kts 92°
2026-05-05 02:13 23.79521 108.61091 37063 ft 517 kts 92°
2026-05-05 02:14 23.79072 108.68877 37056 ft 516 kts 92°
2026-05-05 02:14 23.78609 108.76699 37056 ft 516 kts 92°
2026-05-05 02:15 23.78160 108.84519 37056 ft 516 kts 92°
2026-05-05 02:15 23.77689 108.92338 37056 ft 516 kts 93°
2026-05-05 02:16 23.77205 109.00159 37055 ft 516 kts 93°
2026-05-05 02:16 23.76718 109.07975 37055 ft 516 kts 93°
2026-05-05 02:17 23.76134 109.15785 37055 ft 516 kts 97°
2026-05-05 02:17 23.74738 109.23474 37056 ft 517 kts 104°
2026-05-05 02:18 23.73022 109.31152 37055 ft 517 kts 103°
2026-05-05 02:18 23.71461 109.38814 37055 ft 517 kts 102°
2026-05-05 02:19 23.69903 109.46481 37059 ft 518 kts 103°
2026-05-05 02:19 23.68338 109.54155 37059 ft 518 kts 103°
2026-05-05 02:20 23.66773 109.61831 37060 ft 518 kts 103°
2026-05-05 02:20 23.65192 109.69499 37060 ft 519 kts 103°
2026-05-05 02:21 23.63602 109.77173 37060 ft 519 kts 103°
2026-05-05 02:21 23.62008 109.84855 37061 ft 519 kts 103°
2026-05-05 02:22 23.60413 109.92523 37060 ft 519 kts 103°
2026-05-05 02:22 23.58823 110.00192 37061 ft 519 kts 103°
2026-05-05 02:23 23.57265 110.07880 37062 ft 520 kts 103°
2026-05-05 02:23 23.55664 110.15556 37061 ft 519 kts 103°
2026-05-05 02:24 23.54057 110.23204 37062 ft 519 kts 103°
2026-05-05 02:24 23.52461 110.30785 37060 ft 519 kts 103°
2026-05-05 02:25 23.50838 110.38532 37058 ft 518 kts 103°
2026-05-05 02:25 23.49306 110.46199 37059 ft 517 kts 103°
2026-05-05 02:26 23.47745 110.53850 37060 ft 517 kts 103°
2026-05-05 02:26 23.46191 110.61428 37060 ft 517 kts 103°
2026-05-05 02:27 23.44601 110.69171 37060 ft 516 kts 103°
2026-05-05 02:27 23.43013 110.76797 37061 ft 516 kts 103°
2026-05-05 02:28 23.41404 110.84421 37061 ft 516 kts 103°
2026-05-05 02:28 23.39793 110.92038 37061 ft 516 kts 103°
2026-05-05 02:29 23.38170 110.99636 37061 ft 515 kts 103°
2026-05-05 02:29 23.36543 111.07230 37062 ft 515 kts 104°
2026-05-05 02:30 23.35189 111.13546 37062 ft 516 kts 104°
2026-05-05 02:30 23.33625 111.21172 37063 ft 516 kts 102°
2026-05-05 02:31 23.32103 111.28799 37064 ft 516 kts 103°
2026-05-05 02:31 23.30550 111.36422 37064 ft 516 kts 103°
2026-05-05 02:32 23.28991 111.44046 37065 ft 516 kts 103°
2026-05-05 02:32 23.27432 111.51661 37065 ft 516 kts 103°
2026-05-05 02:33 23.25837 111.59276 37066 ft 516 kts 104°
2026-05-05 02:33 23.24207 111.66869 37067 ft 516 kts 104°
2026-05-05 02:34 23.22571 111.74468 37067 ft 516 kts 104°
2026-05-05 02:34 23.20937 111.82059 37068 ft 516 kts 104°
2026-05-05 02:35 23.19347 111.89659 37067 ft 516 kts 103°
2026-05-05 02:35 23.17766 111.97264 37067 ft 516 kts 103°
2026-05-05 02:36 23.16168 112.04912 37068 ft 516 kts 103°
2026-05-05 02:36 23.14578 112.12510 37068 ft 515 kts 103°
2026-05-05 02:37 23.13032 112.20058 37069 ft 515 kts 103°
2026-05-05 02:37 23.11439 112.27695 37070 ft 515 kts 103°
2026-05-05 02:38 23.09836 112.35288 37070 ft 515 kts 103°
2026-05-05 02:38 23.08231 112.42878 37071 ft 515 kts 103°
2026-05-05 02:39 23.06784 112.50492 37072 ft 515 kts 98°
2026-05-05 02:39 23.06146 112.58241 37073 ft 515 kts 92°
2026-05-05 02:40 23.05784 112.65999 37074 ft 515 kts 93°
2026-05-05 02:40 23.05299 112.73762 37074 ft 515 kts 94°
2026-05-05 02:41 23.04770 112.81519 37075 ft 515 kts 94°
2026-05-05 02:41 23.04272 112.89289 37076 ft 516 kts 94°
2026-05-05 02:42 23.03748 112.97050 37076 ft 516 kts 94°
2026-05-05 02:42 23.03203 113.04812 37077 ft 516 kts 94°
2026-05-05 02:43 23.02599 113.12561 37068 ft 515 kts 99°
2026-05-05 02:43 23.01598 113.16298 37057 ft 514 kts 115°
2026-05-05 02:43 22.99791 113.19615 37054 ft 511 kts 130°
2026-05-05 02:43 22.97307 113.22325 37055 ft 503 kts 146°
2026-05-05 02:44 22.94335 113.24238 37056 ft 492 kts 162°
2026-05-05 02:44 22.91097 113.25238 37057 ft 477 kts 178°
2026-05-05 02:44 22.87858 113.25400 37069 ft 464 kts 186°
2026-05-05 02:45 22.81377 113.26148 37078 ft 470 kts 173°
2026-05-05 02:45 22.75074 113.28338 37081 ft 479 kts 167°
2026-05-05 02:46 22.68782 113.30603 37082 ft 479 kts 168°
2026-05-05 02:46 22.62406 113.32797 37082 ft 477 kts 168°
2026-05-05 02:47 22.56084 113.35025 37082 ft 478 kts 168°
2026-05-05 02:47 22.49796 113.37247 37083 ft 479 kts 168°
2026-05-05 02:48 22.43434 113.39491 37083 ft 478 kts 168°
2026-05-05 02:48 22.37114 113.41718 37083 ft 477 kts 168°
2026-05-05 02:49 22.30807 113.43938 37083 ft 477 kts 168°
2026-05-05 02:49 22.24492 113.46175 37083 ft 477 kts 168°
2026-05-05 02:50 22.18171 113.48400 37083 ft 477 kts 168°
2026-05-05 02:50 22.11860 113.50615 37083 ft 477 kts 168°
2026-05-05 02:51 22.05554 113.52827 37083 ft 476 kts 168°
2026-05-05 02:51 21.99253 113.55035 37083 ft 476 kts 168°
2026-05-05 02:52 21.93068 113.57614 37082 ft 478 kts 162°
2026-05-05 02:52 21.86991 113.60576 37082 ft 480 kts 161°
2026-05-05 02:53 21.80855 113.63441 37082 ft 480 kts 162°
2026-05-05 02:53 21.74715 113.66265 37081 ft 480 kts 162°
2026-05-05 02:54 21.68570 113.69089 37081 ft 480 kts 162°
2026-05-05 02:54 21.62507 113.72098 37073 ft 483 kts 152°
2026-05-05 02:54 21.59945 113.74454 37070 ft 491 kts 136°
2026-05-05 02:55 21.58004 113.77502 37068 ft 500 kts 120°
2026-05-05 02:55 21.56825 113.81031 37067 ft 506 kts 104°
2026-05-05 02:55 21.56497 113.84791 37066 ft 509 kts 88°
2026-05-05 02:55 21.57043 113.88539 37067 ft 508 kts 72°
2026-05-05 02:56 21.58424 113.92009 37068 ft 504 kts 57°
2026-05-05 02:56 21.60537 113.94968 37069 ft 497 kts 41°
2026-05-05 02:56 21.63238 113.97228 37073 ft 487 kts 25°
2026-05-05 02:56 21.66308 113.98628 37076 ft 474 kts
2026-05-05 02:57 21.69526 113.99144 37085 ft 466 kts 357°
2026-05-05 02:57 21.75924 113.99111 37086 ft 448 kts 351°
2026-05-05 02:57 21.78991 113.98967 37083 ft 436 kts 351°
2026-05-05 02:58 21.82001 113.98818 37082 ft 432 kts 351°
2026-05-05 02:58 21.87901 113.98469 37087 ft 412 kts 338°
2026-05-05 02:58 21.90463 113.97240 37086 ft 400 kts 320°
2026-05-05 02:59 21.92473 113.95212 37089 ft 395 kts 302°
2026-05-05 02:59 21.94931 113.89966 37091 ft 390 kts 290°
2026-05-05 03:00 21.97163 113.84696 37087 ft 388 kts 303°
2026-05-05 03:00 21.99118 113.82674 37089 ft 396 kts 321°
2026-05-05 03:00 22.01656 113.81428 37089 ft 410 kts 339°
2026-05-05 03:01 22.07114 113.79603 37084 ft 413 kts 329°
2026-05-05 03:01 22.12237 113.76755 37079 ft 411 kts 327°
2026-05-05 03:01 22.14789 113.75457 37077 ft 400 kts 330°
2026-05-05 03:02 22.17296 113.74256 37076 ft 388 kts 329°
2026-05-05 03:02 22.19815 113.73299 37069 ft 385 kts 342°
2026-05-05 03:02 22.22455 113.73220 37072 ft 389 kts
2026-05-05 03:02 22.25104 113.74148 37069 ft 394 kts 21°
2026-05-05 03:03 22.27262 113.75915 37066 ft 397 kts 40°
2026-05-05 03:03 22.28803 113.78371 37062 ft 395 kts 60°
2026-05-05 03:03 22.29528 113.81241 37067 ft 392 kts 82°
2026-05-05 03:03 22.29426 113.84166 37055 ft 402 kts 95°
2026-05-05 03:04 22.29222 113.87216 37081 ft 414 kts 87°
2026-05-05 03:04 22.29524 113.90321 37068 ft 419 kts 73°
2026-05-05 03:04 22.30602 113.93217 37069 ft 415 kts 54°
2026-05-05 03:05 22.33442 113.98771 37077 ft 445 kts 72°
2026-05-05 03:05 22.33942 114.02138 37065 ft 464 kts 87°
2026-05-05 03:05 22.33596 114.05649 37076 ft 478 kts 104°
2026-05-05 03:05 22.32405 114.09018 37080 ft 487 kts 117°
2026-05-05 03:06 22.31466 114.11302 37068 ft 498 kts 110°
2026-05-05 03:06 22.30741 114.15009 37068 ft 513 kts 95°
2026-05-05 03:06 22.30905 114.18891 37073 ft 524 kts 79°
2026-05-05 03:06 22.31955 114.22695 37076 ft 531 kts 64°
2026-05-05 03:07 22.33819 114.26140 37077 ft 534 kts 49°
2026-05-05 03:07 22.36388 114.29023 37079 ft 534 kts 35°
2026-05-05 03:07 22.39459 114.31273 37081 ft 535 kts 26°
2026-05-05 03:08 22.46096 114.35104 37073 ft 547 kts 25°
2026-05-05 03:08 22.49226 114.37516 37072 ft 559 kts 35°
2026-05-05 03:08 22.51890 114.40568 37073 ft 573 kts 49°
2026-05-05 03:08 22.53904 114.44364 37433 ft 576 kts 64°
2026-05-05 03:09 22.54999 114.48479 38338 ft 568 kts 77°
2026-05-05 03:09 22.55378 114.52784 37961 ft 584 kts 90°
2026-05-05 03:09 22.54798 114.57135 38193 ft 581 kts 105°
2026-05-05 03:09 22.53327 114.61109 39092 ft 566 kts 118°
2026-05-05 03:10 22.51206 114.64741 38598 ft 577 kts 131°
2026-05-05 03:10 22.48328 114.67700 38911 ft 562 kts 147°
2026-05-05 03:10 22.45029 114.69725 39882 ft 540 kts 160°
2026-05-05 03:10 22.41456 114.71027 39387 ft 545 kts 174°
2026-05-05 03:11 22.37734 114.71275 39638 ft 526 kts 190°
2026-05-05 03:11 22.34279 114.70490 40690 ft 499 kts 203°
2026-05-05 03:11 22.31100 114.68969 40258 ft 503 kts 217°
2026-05-05 03:11 22.28463 114.66558 40380 ft 490 kts 233°
2026-05-05 03:12 22.26680 114.63567 41293 ft 469 kts 246°
2026-05-05 03:12 22.25586 114.60230 40813 ft 478 kts 262°
2026-05-05 03:12 22.25484 114.56673 41046 ft 472 kts 278°
2026-05-05 03:12 22.26293 114.53291 41661 ft 466 kts 289°
2026-05-05 03:13 22.27594 114.50016 41230 ft 479 kts 293°
2026-05-05 03:13 22.29002 114.46774 41614 ft 473 kts 294°
2026-05-05 03:13 22.30420 114.43621 42174 ft 468 kts 294°
2026-05-05 03:13 22.31869 114.40410 41750 ft 480 kts 294°
2026-05-05 03:14 22.33332 114.37186 42270 ft 470 kts 296°
2026-05-05 03:14 22.35117 114.34275 42643 ft 471 kts 308°
2026-05-05 03:14 22.37606 114.31858 42230 ft 491 kts 324°
2026-05-05 03:14 22.40709 114.30345 42775 ft 490 kts 340°
2026-05-05 03:15 22.44088 114.29716 42863 ft 503 kts 352°
2026-05-05 03:15 22.47652 114.30021 42606 ft 523 kts
2026-05-05 03:15 22.51033 114.31423 43386 ft 518 kts 24°
2026-05-05 03:15 22.54077 114.33564 43324 ft 531 kts 33°
2026-05-05 03:16 22.56740 114.36425 42968 ft 550 kts 49°
2026-05-05 03:16 22.58674 114.39999 43318 ft 550 kts 64°
2026-05-05 03:16 22.59755 114.43924 43822 ft 548 kts 77°
2026-05-05 03:16 22.60084 114.48088 43326 ft 563 kts 92°
2026-05-05 03:17 22.59426 114.52227 43677 ft 553 kts 108°
2026-05-05 03:17 22.57932 114.55998 44162 ft 546 kts 120°
2026-05-05 03:17 22.55741 114.59381 43693 ft 552 kts 135°
2026-05-05 03:17 22.52894 114.61987 44005 ft 536 kts 151°
2026-05-05 03:18 22.49577 114.63770 44442 ft 523 kts 163°
2026-05-05 03:18 22.46038 114.64708 43994 ft 523 kts 179°
2026-05-05 03:18 22.42482 114.64558 44472 ft 499 kts 195°
2026-05-05 03:18 22.39177 114.63538 44434 ft 496 kts 208°
2026-05-05 03:19 22.34012 114.58968 44918 ft 469 kts 238°
2026-05-05 03:19 22.32467 114.55862 44503 ft 475 kts 253°
2026-05-05 03:19 22.31834 114.52383 44532 ft 470 kts 270°
2026-05-05 03:20 22.32186 114.48942 45127 ft 460 kts 283°
2026-05-05 03:20 22.33229 114.45628 44717 ft 472 kts 292°
2026-05-05 03:20 22.34566 114.42364 44567 ft 477 kts 294°
2026-05-05 03:20 22.35971 114.39174 45371 ft 460 kts 294°
2026-05-05 03:21 22.37441 114.36086 45173 ft 469 kts 302°
2026-05-05 03:21 22.39600 114.33399 44857 ft 483 kts 317°
2026-05-05 03:21 22.42461 114.31485 45272 ft 481 kts 334°
2026-05-05 03:21 22.45662 114.30471 45534 ft 487 kts 346°
2026-05-05 03:22 22.49112 114.30322 45118 ft 508 kts
2026-05-05 03:22 22.52570 114.31232 45263 ft 515 kts 18°
2026-05-05 03:22 22.55700 114.33018 45992 ft 507 kts 28°
2026-05-05 03:22 22.58495 114.35433 45496 ft 528 kts 43°
2026-05-05 03:23 22.60730 114.38672 45259 ft 542 kts 58°
2026-05-05 03:23 22.62100 114.42443 45815 ft 534 kts 74°
2026-05-05 03:23 22.62663 114.46422 45786 ft 541 kts 86°
2026-05-05 03:23 22.62364 114.50513 45478 ft 550 kts 102°
2026-05-05 03:24 22.61102 114.54365 46022 ft 534 kts 118°
2026-05-05 03:24 22.59137 114.57757 45956 ft 537 kts 130°
2026-05-05 03:24 22.56468 114.60593 45641 ft 538 kts 146°
2026-05-05 03:24 22.53265 114.62532 46142 ft 516 kts 162°
2026-05-05 03:25 22.49852 114.63584 46221 ft 512 kts 174°
2026-05-05 03:25 22.46293 114.63726 45844 ft 511 kts 190°
2026-05-05 03:25 22.42905 114.62826 46133 ft 492 kts 207°
2026-05-05 03:25 22.39960 114.61075 46403 ft 482 kts 219°
2026-05-05 03:26 22.37514 114.58603 45985 ft 484 kts 235°
2026-05-05 03:26 22.35840 114.55494 46067 ft 474 kts 252°
2026-05-05 03:26 22.35100 114.52109 46610 ft 461 kts 265°
2026-05-05 03:26 22.35153 114.48628 46137 ft 471 kts 280°
2026-05-05 03:27 22.37317 114.41992 46837 ft 458 kts 293°
2026-05-05 03:27 22.38671 114.38849 46510 ft 468 kts 295°
2026-05-05 03:27 22.40168 114.35690 46185 ft 476 kts 302°
2026-05-05 03:28 22.42347 114.33015 46501 ft 472 kts 319°
2026-05-05 03:28 22.45091 114.31104 46722 ft 476 kts 331°
2026-05-05 03:28 22.48283 114.29965 46321 ft 493 kts 347°
2026-05-05 03:28 22.51722 114.29862 46598 ft 495 kts
2026-05-05 03:29 22.55068 114.30738 46880 ft 499 kts 15°
2026-05-05 03:29 22.58409 114.31794 46488 ft 502 kts
2026-05-05 03:29 22.61872 114.31926 46326 ft 495 kts 349°
2026-05-05 03:29 22.65143 114.30977 47050 ft 470 kts 334°
2026-05-05 03:30 22.67979 114.29302 46683 ft 474 kts 320°
2026-05-05 03:30 22.70322 114.26787 46404 ft 475 kts 304°
2026-05-05 03:30 22.71842 114.23672 46789 ft 461 kts 287°
2026-05-05 03:30 22.72517 114.20256 46872 ft 463 kts 275°
2026-05-05 03:31 22.72317 114.16752 46535 ft 473 kts 258°
2026-05-05 03:31 22.71122 114.13471 47103 ft 466 kts 244°
2026-05-05 03:31 22.69210 114.10580 46706 ft 482 kts 228°
2026-05-05 03:31 22.66570 114.08273 46483 ft 495 kts 216°
2026-05-05 03:32 22.63488 114.06665 47054 ft 488 kts 201°
2026-05-05 03:32 22.60135 114.05889 46882 ft 503 kts 188°
2026-05-05 03:32 22.56585 114.06053 46533 ft 520 kts 173°
2026-05-05 03:32 22.53129 114.07266 46795 ft 521 kts 156°
2026-05-05 03:33 22.50100 114.09357 47168 ft 521 kts 144°
2026-05-05 03:33 22.47514 114.12167 46718 ft 535 kts 129°
2026-05-05 03:33 22.43744 114.19042 47497 ft 522 kts 118°
2026-05-05 03:34 22.42103 114.22596 47090 ft 533 kts 117°
2026-05-05 03:34 22.40477 114.26226 46844 ft 539 kts 115°
2026-05-05 03:34 22.39340 114.30031 47255 ft 527 kts 99°
2026-05-05 03:34 22.39066 114.33948 47407 ft 526 kts 87°
2026-05-05 03:35 22.39630 114.37877 46979 ft 532 kts 72°
2026-05-05 03:35 22.40942 114.41606 46831 ft 530 kts 59°
2026-05-05 03:35 22.43023 114.44784 47509 ft 508 kts 45°
2026-05-05 03:35 22.45641 114.47359 47093 ft 512 kts 31°
2026-05-05 03:36 22.48789 114.49119 46815 ft 509 kts 15°
2026-05-05 03:36 22.52193 114.49866 47149 ft 489 kts 359°
2026-05-05 03:36 22.55518 114.49668 47273 ft 483 kts 346°
2026-05-05 03:36 22.58738 114.48549 46897 ft 483 kts 330°
2026-05-05 03:37 22.61443 114.46504 47249 ft 466 kts 313°
2026-05-05 03:37 22.63482 114.43837 47322 ft 465 kts 301°
2026-05-05 03:37 22.64814 114.40622 46968 ft 471 kts 285°
2026-05-05 03:37 22.65208 114.37120 47110 ft 467 kts 268°
2026-05-05 03:38 22.64664 114.33711 47482 ft 464 kts 255°
2026-05-05 03:38 22.63315 114.30484 47038 ft 480 kts 239°
2026-05-05 03:38 22.61113 114.27727 46953 ft 488 kts 223°
2026-05-05 03:38 22.58364 114.25657 47662 ft 479 kts 215°
2026-05-05 03:39 22.55290 114.24122 47210 ft 497 kts 200°
2026-05-05 03:39 22.51831 114.23506 46920 ft 513 kts 185°
2026-05-05 03:39 22.48292 114.23942 47253 ft 512 kts 168°
2026-05-05 03:39 22.44986 114.25307 47491 ft 515 kts 155°
2026-05-05 03:40 22.41979 114.27511 47095 ft 529 kts 140°
2026-05-05 03:40 22.39556 114.30519 47080 ft 533 kts 124°
2026-05-05 03:40 22.37961 114.34073 47673 ft 522 kts 111°
2026-05-05 03:40 22.37096 114.37915 47228 ft 532 kts 95°
2026-05-05 03:41 22.36982 114.41924 46933 ft 537 kts 84°
2026-05-05 03:41 22.37738 114.45828 47269 ft 523 kts 68°
2026-05-05 03:41 22.39291 114.49314 47488 ft 517 kts 56°
2026-05-05 03:41 22.41554 114.52339 47070 ft 519 kts 40°
2026-05-05 03:42 22.44457 114.54610 47046 ft 509 kts 24°
2026-05-05 03:42 22.47690 114.55900 47581 ft 491 kts 10°
2026-05-05 03:42 22.49960 114.56319 47242 ft 494 kts
2026-05-05 03:42 22.53379 114.56090 46946 ft 491 kts 344°
2026-05-05 03:43 22.56517 114.54840 47329 ft 471 kts 327°
2026-05-05 03:43 22.59163 114.52800 47431 ft 468 kts 315°
2026-05-05 03:43 22.61233 114.50071 47023 ft 473 kts 299°
2026-05-05 03:43 22.62450 114.46825 47242 ft 464 kts 282°
2026-05-05 03:44 22.62762 114.43372 47555 ft 461 kts 269°
2026-05-05 03:44 22.62232 114.39910 47171 ft 474 kts 253°
2026-05-05 03:44 22.60782 114.36680 47006 ft 483 kts 237°
2026-05-05 03:44 22.58505 114.34065 47649 ft 475 kts 223°
2026-05-05 03:45 22.55731 114.32031 47285 ft 491 kts 213°
2026-05-05 03:45 22.52694 114.30274 47041 ft 499 kts 208°
2026-05-05 03:45 22.49379 114.29199 47533 ft 494 kts 191°
2026-05-05 03:45 22.45883 114.29028 47459 ft 506 kts 179°
2026-05-05 03:46 22.42378 114.29813 47113 ft 522 kts 163°
2026-05-05 03:46 22.39130 114.31601 47247 ft 524 kts 147°
2026-05-05 03:46 22.36475 114.34158 47676 ft 520 kts 134°
2026-05-05 03:46 22.34317 114.37406 47256 ft 533 kts 119°
2026-05-05 03:47 22.32889 114.41116 47162 ft 534 kts 107°
2026-05-05 03:47 22.32301 114.45010 47816 ft 519 kts 93°
2026-05-05 03:47 22.32482 114.48869 47433 ft 527 kts 78°
2026-05-05 03:47 22.33585 114.52697 47131 ft 529 kts 63°
2026-05-05 03:48 22.35522 114.56047 47093 ft 522 kts 47°
2026-05-05 03:48 22.38127 114.58623 47803 ft 500 kts 32°
2026-05-05 03:48 22.41149 114.60492 47424 ft 501 kts 18°
2026-05-05 03:48 22.44507 114.61437 47138 ft 499 kts
2026-05-05 03:49 22.47941 114.61379 47094 ft 490 kts 346°
2026-05-05 03:49 22.51096 114.60298 47758 ft 469 kts 332°
2026-05-05 03:49 22.53890 114.58463 47323 ft 474 kts 317°
2026-05-05 03:49 22.56104 114.55828 47081 ft 474 kts 301°
2026-05-05 03:50 22.57454 114.52648 47613 ft 458 kts 285°
2026-05-05 03:50 22.57993 114.49241 47476 ft 465 kts 272°
2026-05-05 03:50 22.57638 114.45742 47164 ft 475 kts 256°
2026-05-05 03:50 22.56323 114.42471 47462 ft 472 kts 239°
2026-05-05 03:51 22.54297 114.39768 47590 ft 474 kts 227°
2026-05-05 03:51 22.51669 114.37571 47210 ft 480 kts 215°
2026-05-05 03:51 22.48725 114.35748 46885 ft 481 kts 212°
2026-05-05 03:51 22.45897 114.33952 46579 ft 477 kts 213°
2026-05-05 03:52 22.42828 114.32543 46264 ft 484 kts 198°
2026-05-05 03:52 22.39475 114.32077 45951 ft 492 kts 182°
2026-05-05 03:52 22.36065 114.32599 45637 ft 500 kts 167°
2026-05-05 03:52 22.32856 114.34081 45323 ft 507 kts 152°
2026-05-05 03:53 22.30061 114.36437 45009 ft 513 kts 136°
2026-05-05 03:53 22.27854 114.39475 44702 ft 516 kts 126°
2026-05-05 03:53 22.25530 114.42453 44368 ft 510 kts 140°
2026-05-05 03:53 22.22662 114.44638 44050 ft 502 kts 155°
2026-05-05 03:54 22.19439 114.45934 43738 ft 488 kts 171°
2026-05-05 03:54 22.16145 114.46272 43427 ft 465 kts 187°
2026-05-05 03:54 22.13051 114.45663 43115 ft 443 kts 204°
2026-05-05 03:54 22.10382 114.44192 42801 ft 421 kts 221°
2026-05-05 03:55 22.08363 114.42030 42488 ft 402 kts 239°
2026-05-05 03:55 22.07153 114.39403 42176 ft 385 kts 257°
2026-05-05 03:55 22.06850 114.36594 41861 ft 373 kts 275°
2026-05-05 03:55 22.07240 114.34235 41603 ft 366 kts 281°
2026-05-05 03:56 22.07434 114.31552 41270 ft 359 kts 260°
2026-05-05 03:56 22.06492 114.29083 40884 ft 360 kts 237°
2026-05-05 03:56 22.04616 114.27268 40324 ft 373 kts 213°
2026-05-05 03:56 22.02094 114.26424 39683 ft 392 kts 191°
2026-05-05 03:57 21.99324 114.26683 39011 ft 411 kts 171°
2026-05-05 03:57 21.96938 114.27779 38438 ft 425 kts 155°
2026-05-05 03:57 21.94607 114.29771 38041 ft 429 kts 140°
2026-05-05 03:57 21.92729 114.32261 37707 ft 428 kts 128°
2026-05-05 03:58 21.91366 114.34769 37406 ft 425 kts 121°
2026-05-05 03:58 21.90077 114.37837 37059 ft 421 kts 115°
2026-05-05 03:58 21.89031 114.40758 36732 ft 415 kts 113°
2026-05-05 03:58 21.88017 114.43666 36203 ft 416 kts 114°
2026-05-05 03:59 21.86926 114.46554 35616 ft 417 kts 116°
2026-05-05 03:59 21.85852 114.49033 35101 ft 418 kts 120°
2026-05-05 03:59 21.84451 114.51766 34512 ft 418 kts 124°
2026-05-05 03:59 21.82836 114.54358 33922 ft 417 kts 130°
2026-05-05 04:00 21.81001 114.56749 33498 ft 409 kts 137°
2026-05-05 04:00 21.78992 114.58850 33254 ft 396 kts 144°
2026-05-05 04:00 21.76838 114.60614 33010 ft 382 kts 153°
2026-05-05 04:00 21.74572 114.61986 32746 ft 368 kts 162°
2026-05-05 04:01 21.72205 114.62935 32239 ft 359 kts 172°
2026-05-05 04:01 21.69775 114.63399 31662 ft 352 kts 183°
2026-05-05 04:01 21.67360 114.63326 31095 ft 343 kts 195°
2026-05-05 04:01 21.65092 114.62683 30544 ft 333 kts 209°
2026-05-05 04:02 21.63126 114.61461 30011 ft 323 kts 225°
2026-05-05 04:02 21.61666 114.59698 29491 ft 313 kts 243°
2026-05-05 04:02 21.60952 114.57525 28982 ft 308 kts 264°
2026-05-05 04:02 21.61222 114.55261 28477 ft 311 kts 290°
2026-05-05 04:03 21.62567 114.53412 27873 ft 328 kts 319°
2026-05-05 04:03 21.64770 114.52519 27011 ft 358 kts 347°
2026-05-05 04:03 21.67307 114.52808 26356 ft 380 kts 11°
2026-05-05 04:03 21.69618 114.54215 26129 ft 385 kts 34°
2026-05-05 04:04 21.71332 114.56390 26025 ft 381 kts 54°
2026-05-05 04:04 21.72343 114.58990 25883 ft 374 kts 72°
2026-05-05 04:04 21.72705 114.61747 25464 ft 374 kts 86°
2026-05-05 04:04 21.72530 114.64539 24908 ft 376 kts 98°
2026-05-05 04:05 21.71945 114.67282 24361 ft 377 kts 107°
2026-05-05 04:05 21.71059 114.69982 23809 ft 378 kts 114°
2026-05-05 04:05 21.69999 114.72546 23507 ft 371 kts 118°
2026-05-05 04:05 21.68868 114.74965 23252 ft 363 kts 120°
2026-05-05 04:06 21.67693 114.77327 22998 ft 356 kts 121°
2026-05-05 04:06 21.66518 114.79654 22727 ft 350 kts 122°
2026-05-05 04:06 21.65376 114.81960 22284 ft 350 kts 121°
2026-05-05 04:06 21.64269 114.84305 21795 ft 353 kts 120°
2026-05-05 04:07 21.63219 114.86697 21301 ft 355 kts 117°
2026-05-05 04:07 21.62243 114.89139 20805 ft 357 kts 115°
2026-05-05 04:07 21.61364 114.91625 20447 ft 353 kts 112°
2026-05-05 04:07 21.60614 114.94115 20180 ft 348 kts 109°
2026-05-05 04:08 21.60006 114.96602 19916 ft 342 kts 105°
2026-05-05 04:08 21.59553 114.99091 19657 ft 336 kts 101°
2026-05-05 04:08 21.59262 115.01582 19243 ft 337 kts 97°
2026-05-05 04:08 21.59139 115.04099 18782 ft 338 kts 92°
2026-05-05 04:09 21.59195 115.06666 18309 ft 340 kts 88°
2026-05-05 04:09 21.59436 115.09193 17842 ft 341 kts 83°
2026-05-05 04:09 21.59866 115.11699 17374 ft 341 kts 78°
2026-05-05 04:09 21.60486 115.14163 16904 ft 342 kts 72°
2026-05-05 04:10 21.61295 115.16567 16434 ft 342 kts 68°
2026-05-05 04:10 21.62287 115.18883 15964 ft 341 kts 62°
2026-05-05 04:10 21.63461 115.21101 15494 ft 341 kts 57°
2026-05-05 04:10 21.64804 115.23191 15027 ft 339 kts 52°
2026-05-05 04:11 21.66273 115.25166 14529 ft 338 kts 52°
2026-05-05 04:11 21.67356 115.27393 14001 ft 339 kts 72°
2026-05-05 04:11 21.67614 115.29908 13398 ft 340 kts 95°
2026-05-05 04:11 21.67158 115.31967 12910 ft 338 kts 115°
2026-05-05 04:12 21.65993 115.33709 12385 ft 331 kts 141°
2026-05-05 04:12 21.64032 115.34838 12029 ft 314 kts 168°
2026-05-05 04:12 21.61874 115.34904 11762 ft 313 kts 194°
2026-05-05 04:12 21.59968 115.33877 11815 ft 305 kts 222°
2026-05-05 04:13 21.58856 115.32020 12026 ft 297 kts 252°
2026-05-05 04:13 21.58858 115.29801 11834 ft 310 kts 283°
2026-05-05 04:13 21.59063 115.29212 11729 ft 315 kts 291°